Погода в Уайт-Рок

Канада     49°01′55″N   122°48′03″W
темп.,
°C
ветер,
м/с
пор.,
м/с
влажн.,
%
обл.,
%
осадки,
мм/ч
давл.,
гПа
погр.,
м
19 сентября, вс
вс1923:00+12ююв2495100 5.0 1008152
02:00+11всв2497100 1.7 1009136
05:00+12вюв1394100 2.2 1010133
08:00+11ююв359699 2.0 1013283
11:00+13ю579329 2.5 1015523
14:00+15ю57808 1.1 1016671
17:00+14ю488815 3.0 1017478
20:00+12ююв369296 0.7 1019149
20 сентября, пн
пн2023:00+10вюв249621 0.9 102180
02:00+11ююв379652 0.0 1023202
05:00+11ю3695100 0.0 1025302
08:00+12ю2695100 0.1 1026281
11:00+14ююз358787 0.2 1027588
14:00+15ююз2374100 0.1 1027499
17:00+16сз116780 0.1 1026519
20:00+12св1185100 0.0 102610
21 сентября, вт
вт2123:00+10св229371 0.0 102619
02:00+9св22945 0.0 102542
05:00+9св22900 0.0 102444
08:00+10св23821 0.0 102383
11:00+16ссз125695 0.0 1021353
14:00+19з325515 0.0 1019492
17:00+17з2365100 0.0 1017146
20:00+12з1179100 0.0 101612
22 сентября, ср
ср2223:00+12юв1175100 0.0 101613
02:00+12в1178100 0.0 101723
05:00+11всв2492100 0.6 1018123
08:00+12ю129295 0.2 102075
11:00+13ю238890 0.2 1022316
14:00+13ю238863 0.0 1023196
17:00+15ююз227831 0.0 1024429
20:00+12ю119331 0.0 102511
23 сентября, чт
чт2323:00+11всв11953 0.0 102610
02:00+10всв119526 0.0 102716
05:00+9св119627 0.0 102722
08:00+10всв119510 0.0 102851
11:00+15з1176100 0.0 1028493
14:00+16з326722 0.0 1027842
17:00+15з227241 0.0 1025274
20:00+11зсз12900 0.0 102519